Regional Weather Roundup
Issued by NWS Huntsville, AL

Home | Current Version | Previous Version | Text Only | Print | Product List | Glossary On
Versions: 1 2 3 4 5 6 7 8 9 10 11 12 13 14 15 16 17 18 19 20 21 22 23 24 25 26 27
000
ASUS44 KHUN 030910
RWRHUN

WEATHER ROUNDUP FOR THE TENNESSEE VALLEY
NATIONAL WEATHER SERVICE HUNTSVILLE AL
300 AM CST SAT DEC 03 2016

ALZ001>004-031000-
NORTHWEST ALABAMA

CITY           SKY/WX    TMP DP  RH WIND       PRES   REMARKS
COURTLAND HCN    N/A     36 N/A N/A CALM        N/A
RUSSELLVILLE     N/A     34 N/A N/A MISG        N/A
SHOALS AIRPORT NOT AVBL
SHOALS TVA RES   N/A     37 N/A N/A MISG        N/A
$$

ALZ005>007-016-031000-
NORTH CENTRAL ALABAMA

CITY           SKY/WX    TMP DP  RH WIND       PRES   REMARKS
CULLMAN AG STN   N/A     39 N/A N/A CALM        N/A
DECATUR AP     NOT AVBL
HUNTSVILLE AP  NOT AVBL
MERIDIANVILLE  CLOUDY    34  32  93 CALM      30.30S
REDSTONE ARSN  MOCLDY    40  32  75 NE3       30.28F
VINEMONT AP    FAIR      36  33  89 CALM      30.28F
$$

ALZ008>010-031000-
NORTHEAST ALABAMA

CITY           SKY/WX    TMP DP  RH WIND       PRES   REMARKS
ALBERTVILLE    PTCLDY    39  39 100 NE3       30.26S
FORT PAYNE     CLEAR     32  30  93 CALM      30.28S
SCOTTSBORO AP  PTCLDY    34  34 100 CALM      30.30S
SCOTTSBORO HCN   N/A     32 N/A N/A MISG        N/A
VALLEY HEAD      N/A     32 N/A N/A MISG        N/A
$$

TNZ076-096-097-031000-
SOUTHEASTERN MIDDLE TENNESSEE

CITY           SKY/WX    TMP DP  RH WIND       PRES   REMARKS
TULLAHOMA      CLEAR     39  28  65 CALM      30.30S
WINCHESTER     CLEAR     34  32  93 CALM      30.30S
$$

...SURROUNDING SITES...

CITY           SKY/WX    TMP DP  RH WIND       PRES   REMARKS
ATLANTA        NOT AVBL
ANNISTON       MOCLDY    40  35  83 NE5       30.28R
BIRMINGHAM     MOCLDY    41  37  86 CALM      30.28S
CHATTANOOGA    CLEAR     39  34  82 CALM      30.30R
CORINTH        FAIR      39  36  87 CALM      30.30S
DALTON         CLEAR     36  32  87 NW5       30.28S WCI  32
GADSDEN        PTCLDY    34  33  96 CALM      30.28F
GOLDEN TRNGL   CLOUDY    45  36  70 CALM      30.22S
HALEYVILLE     FAIR      37  35  92 CALM      30.29
JACKSON TN     NOT AVBL
MEMPHIS        CLOUDY    49  32  52 E9        30.30S
NASHVILLE      NOT AVBL
OXFORD MS      FAIR      45  32  61 NE5       30.30S
ROME           CLEAR     32  30  92 CALM      30.27S
SAVANNAH       PTCLDY    37  36  93 CALM      30.29F
TUPELO         CLOUDY    41  35  79 NW5       30.28R
TUSCALOOSA     CLOUDY    44  39  82 CALM      30.27S
$$

...GULF COAST WEATHER...

CITY           SKY/WX    TMP DP  RH WIND       PRES   REMARKS
MOBILE         LGT RAIN  52  45  77 S5        30.24R
GULF SHORES    MOSUNNY   57  36  44 E7        30.18R
PENSACOLA      PTCLDY    59  38  45 NE12      30.18S
PANAMA CITY    CLOUDY    54  36  50 VRB5      30.21F
$$





USA.gov is the U.S. government's official web portal to all federal, state and local government web resources and services.